GFSFLT2_500_temp_000.txt.gz
Temp
-7 -7 -8 -8 -8 -8 -8 -8 -8 -8 -7 -6 -7 -7 -7 -7 -8 -8 -8 -8 -8 -8 -8 -8 -9 -9 -8 -8 -8 -8 -8 -8
-6 -7 -8 -8 -8 -8 -8 -8 -8 -8 -8 -6 -7 -6 -7 -7 -7 -8 -8 -8 -8 -8 -8 -8 -8 -8 -9 -9 -9 -9 -8 -8
-7 -7 -7 -8 -8 -8 -8 -8 -8 -8 -8 -7 -7 -7 -7 -7 -7 -7 -8 -8 -8 -8 -8 -8 -8 -8 -9 -8 -8 -8 -8 -8
-7 -7 -7 -7 -8 -8 -8 -8 -8 -8 -7 -7 -7 -8 -8 -7 -7 -7 -8 -8 -8 -8 -8 -8 -8 -8 -8 -8 -8 -8 -8 -8
-9 -9 -8 -8 -7 -8 -8 -8 -8 -8 -7 -7 -7 -8 -8 -8 -8 -8 -8 -8 -8 -8 -8 -8 -8 -8 -8 -8 -8 -9 -9 -9
-7 -7 -8 -8 -8 -9 -8 -8 -8 -7 -7 -7 -7 -7 -8 -7 -8 -8 -8 -8 -8 -8 -8 -9 -9 -9 -9 -9 -8 -9 -9 -9
-7 -8 -8 -8 -7 -7 -8 -7 -8 -7 -7 -8 -7 -8 -8 -8 -8 -8 -8 -7 -8 -8 -8 -8 -8 -8 -9 -9 -9 -9 -9 -9
-8 -8 -9 -9 -9 -8 -8 -9 -8 -8 -8 -8 -8 -8 -8 -8 -8 -8 -7 -7 -7 -8 -8 -8 -8 -8 -9 -9 -9 -9 -9 -9
-9 -9 -9 -10 -9 -9 -9 -9 -8 -8 -8 -8 -8 -8 -8 -8 -8 -8 -8 -7 -8 -8 -8 -8 -9 -9 -9 -9 -9 -10 -9 -10
-10 -10 -10 -9 -9 -9 -9 -9 -8 -8 -8 -8 -8 -8 -8 -9 -8 -8 -9 -9 -9 -9 -9 -9 -9 -9 -9 -10 -10 -9 -9 -10
-10 -10 -10 -10 -9 -9 -9 -8 -8 -8 -8 -8 -8 -8 -8 -8 -8 -9 -9 -9 -10 -10 -10 -9 -9 -9 -10 -10 -9 -10 -10 -9
-10 -10 -9 -9 -9 -9 -8 -10 -9 -8 -8 -8 -8 -8 -8 -9 -9 -9 -9 -9 -9 -9 -9 -9 -9 -9 -9 -10 -9 -9 -9 -9
-10 -9 -9 -9 -9 -9 -9 -8 -10 -9 -8 -8 -8 -8 -8 -8 -8 -8 -9 -9 -9 -10 -10 -10 -9 -9 -9 -10 -10 -9 -10 -10
-11 -9 -9 -9 -9 -9 -9 -9 -10 -9 -9 -9 -9 -9 -9 -9 -9 -9 -9 -9 -9 -9 -9 -10 -10 -10 -10 -10 -10 -10 -9 -10
-11 -10 -10 -9 -9 -9 -9 -10 -10 -10 -9 -9 -9 -9 -9 -9 -9 -9 -9 -10 -9 -9 -10 -9 -10 -10 -10 -10 -10 -9 -10 -10
-11 -10 -10 -10 -10 -10 -10 -10 -9 -10 -11 -9 -9 -10 -10 -10 -10 -10 -10 -10 -10 -10 -10 -10 -10 -11 -10 -10 -11 -11 -11 -10
-11 -11 -11 -10 -10 -10 -10 -10 -10 -11 -10 -11 -10 -10 -10 -10 -10 -10 -10 -10 -10 -10 -10 -10 -10 -9 -10 -11 -11 -11 -11 -11
-11 -11 -11 -11 -11 -11 -11 -11 -11 -11 -11 -11 -11 -10 -11 -11 -10 -10 -10 -11 -10 -11 -11 -11 -10 -10 -10 -10 -11 -11 -10 -10
-12 -11 -11 -11 -11 -11 -11 -11 -11 -10 -11 -11 -11 -11 -11 -11 -11 -11 -11 -10 -9 -10 -10 -11 -11 -11 -10 -10 -10 -10 -10 -11

GFSFLT2_500_temp_003.txt.gz
Temp
-7 -7 -8 -8 -8 -8 -9 -9 -9 -8 -6 -5 -7 -7 -7 -8 -8 -8 -8 -8 -8 -8 -8 -8 -7 -7 -8 -7 -7 -7 -8 -7
-8 -8 -9 -8 -8 -9 -9 -9 -9 -8 -7 -4 -6 -7 -7 -7 -7 -8 -7 -8 -8 -8 -8 -8 -8 -8 -8 -8 -8 -8 -8 -8
-8 -9 -9 -9 -8 -9 -9 -9 -9 -8 -7 -5 -7 -7 -7 -7 -7 -7 -7 -7 -8 -8 -8 -8 -8 -7 -8 -8 -8 -8 -8 -8
-8 -8 -9 -9 -8 -8 -9 -8 -8 -8 -8 -6 -7 -7 -7 -7 -7 -7 -7 -8 -8 -8 -8 -8 -8 -7 -8 -8 -8 -8 -8 -9
-9 -9 -8 -8 -8 -8 -9 -9 -8 -8 -8 -7 -7 -8 -7 -7 -7 -8 -8 -8 -7 -8 -8 -8 -8 -8 -8 -9 -9 -9 -9 -9
-9 -8 -8 -8 -8 -8 -9 -9 -9 -8 -8 -7 -8 -8 -8 -8 -8 -8 -8 -8 -8 -8 -8 -8 -8 -8 -9 -9 -9 -9 -9 -9
-10 -8 -9 -8 -8 -8 -8 -8 -8 -7 -7 -6 -8 -8 -8 -8 -8 -8 -8 -8 -8 -8 -8 -8 -8 -8 -9 -9 -9 -10 -10 -10
-10 -10 -10 -9 -8 -8 -8 -8 -8 -7 -7 -7 -7 -7 -8 -8 -8 -8 -8 -8 -8 -8 -8 -8 -8 -9 -9 -9 -9 -9 -10 -10
-10 -11 -10 -10 -10 -9 -8 -8 -8 -8 -7 -7 -7 -8 -8 -8 -8 -8 -8 -8 -8 -8 -8 -9 -9 -8 -8 -9 -9 -9 -9 -9
-11 -11 -11 -9 -9 -9 -9 -8 -9 -8 -8 -7 -8 -8 -8 -8 -8 -9 -8 -9 -8 -9 -9 -9 -9 -8 -8 -9 -9 -9 -9 -9
-11 -11 -11 -10 -10 -10 -10 -9 -8 -8 -8 -8 -8 -8 -8 -8 -8 -9 -8 -9 -9 -9 -9 -9 -8 -8 -8 -9 -9 -9 -9 -9
-12 -12 -10 -10 -10 -10 -10 -10 -9 -9 -8 -8 -8 -8 -8 -8 -8 -8 -8 -9 -9 -9 -9 -9 -8 -8 -9 -9 -8 -9 -9 -9
-12 -11 -10 -10 -10 -10 -10 -10 -9 -9 -9 -9 -8 -8 -8 -8 -8 -8 -9 -9 -9 -9 -9 -9 -9 -9 -9 -9 -9 -9 -9 -9
-12 -11 -11 -10 -10 -10 -10 -10 -9 -9 -9 -8 -9 -8 -8 -8 -8 -9 -9 -9 -9 -10 -9 -9 -9 -9 -9 -9 -9 -10 -10 -10
-11 -11 -10 -10 -10 -10 -10 -10 -9 -9 -9 -10 -9 -9 -9 -9 -9 -9 -9 -9 -10 -10 -10 -10 -10 -10 -10 -10 -9 -10 -10 -9
-12 -11 -11 -10 -10 -9 -10 -9 -9 -10 -10 -10 -9 -10 -10 -10 -9 -9 -10 -10 -10 -10 -9 -9 -9 -10 -10 -10 -10 -10 -9 -8
-12 -12 -11 -10 -10 -10 -10 -10 -10 -10 -10 -10 -10 -10 -10 -10 -10 -10 -10 -9 -9 -9 -10 -10 -10 -10 -9 -9 -10 -9 -9 -10
-11 -12 -11 -11 -11 -11 -11 -10 -10 -10 -10 -10 -9 -10 -11 -10 -10 -10 -10 -10 -10 -10 -10 -10 -10 -11 -9 -9 -9 -10 -10 -10
-13 -13 -11 -11 -11 -11 -11 -11 -11 -11 -10 -11 -11 -11 -11 -10 -10 -10 -11 -11 -11 -11 -11 -11 -11 -11 -10 -10 -10 -10 -10 -10

GFSFLT2_500_temp_006.txt.gz
Temp
-6 -6 -8 -7 -7 -8 -8 -8 -7 -7 -7 -7 -7 -7 -7 -7 -8 -7 -8 -7 -7 -8 -7 -7 -7 -7 -7 -7 -7 -7 -8 -7
-7 -7 -7 -8 -7 -8 -8 -8 -7 -8 -8 -7 -6 -7 -7 -7 -7 -7 -7 -7 -7 -7 -7 -8 -8 -7 -7 -7 -8 -8 -8 -8
-8 -7 -7 -8 -9 -8 -9 -8 -8 -8 -8 -8 -6 -7 -7 -8 -7 -7 -7 -7 -7 -7 -7 -7 -8 -7 -8 -7 -8 -8 -8 -8
-7 -7 -8 -10 -9 -10 -9 -8 -8 -8 -7 -8 -8 -6 -7 -7 -8 -8 -7 -7 -7 -7 -7 -7 -8 -7 -7 -7 -8 -8 -8 -9
-9 -10 -10 -10 -10 -10 -10 -9 -8 -9 -8 -8 -8 -6 -6 -7 -7 -7 -7 -7 -7 -7 -7 -8 -8 -7 -8 -8 -8 -9 -9 -9
-10 -9 -10 -9 -8 -9 -10 -9 -9 -8 -8 -8 -9 -6 -6 -7 -7 -7 -8 -8 -8 -7 -7 -8 -8 -8 -8 -8 -8 -9 -9 -9
-10 -10 -11 -11 -11 -9 -9 -9 -9 -8 -9 -9 -9 -7 -6 -7 -8 -8 -8 -8 -8 -8 -8 -8 -8 -8 -8 -8 -8 -8 -9 -9
-12 -12 -12 -11 -11 -11 -11 -8 -10 -10 -9 -9 -9 -7 -7 -7 -8 -8 -8 -8 -8 -8 -8 -8 -8 -8 -8 -8 -8 -9 -9 -9
-12 -11 -11 -11 -11 -11 -11 -10 -9 -9 -7 -8 -8 -8 -6 -7 -7 -8 -8 -8 -8 -8 -8 -8 -8 -8 -8 -8 -8 -8 -9 -8
-12 -10 -12 -11 -11 -11 -11 -11 -9 -8 -9 -7 -8 -7 -7 -7 -8 -8 -8 -8 -8 -8 -8 -8 -8 -8 -8 -7 -8 -8 -9 -9
-13 -12 -11 -11 -11 -11 -11 -11 -11 -10 -8 -9 -7 -7 -6 -8 -8 -8 -8 -8 -8 -8 -8 -8 -8 -8 -8 -8 -8 -8 -9 -9
-13 -12 -12 -12 -11 -11 -11 -10 -10 -10 -10 -8 -7 -7 -7 -8 -8 -8 -8 -8 -8 -8 -9 -9 -9 -9 -9 -8 -8 -8 -9 -9
-13 -13 -13 -11 -11 -11 -11 -10 -10 -9 -9 -9 -7 -7 -8 -8 -8 -8 -8 -8 -8 -8 -9 -9 -9 -9 -9 -8 -9 -9 -9 -9
-13 -13 -13 -10 -11 -11 -10 -10 -10 -10 -10 -10 -8 -8 -8 -8 -8 -8 -8 -8 -8 -8 -8 -8 -9 -9 -9 -9 -9 -9 -9 -9
-12 -13 -12 -12 -11 -11 -11 -10 -10 -10 -10 -9 -9 -8 -8 -8 -8 -8 -8 -8 -8 -8 -9 -9 -9 -9 -9 -9 -9 -9 -9 -10
-12 -12 -11 -11 -11 -11 -11 -10 -10 -10 -9 -9 -9 -9 -9 -9 -8 -8 -8 -9 -9 -9 -9 -9 -9 -9 -9 -9 -9 -9 -10 -10
-12 -12 -12 -11 -11 -11 -11 -10 -10 -10 -9 -9 -9 -9 -9 -9 -10 -9 -9 -9 -9 -9 -9 -9 -9 -10 -10 -9 -9 -9 -10 -10
-12 -12 -12 -11 -12 -11 -11 -11 -11 -10 -10 -10 -10 -9 -10 -10 -9 -10 -10 -10 -10 -10 -10 -9 -9 -9 -9 -9 -10 -9 -10 -10
-12 -12 -11 -12 -11 -11 -11 -11 -11 -11 -10 -10 -10 -10 -10 -10 -10 -11 -10 -10 -11 -11 -10 -9 -9 -9 -9 -9 -9 -9 -9 -10

GFSFLT2_500_temp_009.txt.gz
Temp
-4 -5 -6 -7 -7 -7 -7 -6 -6 -5 -6 -6 -6 -6 -7 -7 -7 -7 -7 -7 -7 -7 -7 -7 -7 -7 -7 -7 -6 -7 -7 -7
-6 -7 -5 -7 -7 -8 -8 -6 -6 -5 -5 -6 -6 -6 -7 -7 -7 -7 -8 -7 -7 -7 -7 -7 -7 -7 -7 -7 -7 -7 -7 -8
-9 -4 -4 -6 -6 -8 -8 -7 -6 -6 -5 -5 -6 -7 -7 -7 -7 -7 -7 -7 -7 -7 -7 -7 -7 -7 -7 -7 -7 -7 -7 -8
-7 -8 -9 -9 -7 -8 -8 -8 -7 -6 -5 -6 -6 -7 -7 -8 -7 -7 -7 -7 -7 -7 -7 -7 -7 -7 -7 -7 -6 -6 -7 -7
-9 -9 -9 -6 -6 -7 -8 -8 -7 -7 -6 -6 -7 -7 -7 -7 -8 -7 -8 -7 -7 -7 -7 -7 -7 -7 -7 -7 -6 -6 -6 -7
-8 -8 -9 -9 -8 -9 -8 -8 -7 -7 -7 -7 -7 -7 -8 -8 -7 -7 -8 -7 -7 -7 -7 -7 -7 -7 -7 -7 -7 -7 -7 -7
-8 -10 -10 -9 -9 -9 -9 -8 -8 -7 -8 -7 -7 -7 -8 -8 -7 -7 -8 -7 -7 -7 -7 -7 -7 -7 -7 -7 -7 -7 -7 -7
-10 -10 -10 -10 -9 -9 -9 -9 -9 -9 -8 -8 -8 -8 -8 -8 -7 -7 -8 -8 -7 -7 -7 -7 -7 -7 -8 -8 -7 -8 -7 -7
-11 -11 -10 -10 -9 -10 -9 -9 -9 -9 -9 -9 -8 -8 -8 -8 -8 -7 -6 -8 -7 -7 -7 -7 -8 -8 -8 -8 -8 -8 -7 -8
-11 -10 -10 -8 -10 -10 -10 -10 -10 -10 -9 -9 -9 -8 -9 -8 -8 -8 -6 -7 -8 -7 -7 -8 -8 -8 -8 -8 -7 -7 -7 -8
-11 -11 -9 -9 -9 -10 -10 -9 -10 -9 -10 -10 -9 -9 -9 -8 -6 -8 -7 -8 -8 -8 -8 -8 -8 -8 -8 -7 -8 -8 -8 -8
-12 -11 -10 -10 -9 -10 -10 -10 -10 -10 -10 -10 -10 -9 -9 -8 -8 -6 -7 -8 -7 -8 -8 -8 -8 -8 -8 -8 -8 -8 -8 -8
-13 -12 -11 -11 -9 -10 -11 -10 -11 -10 -10 -10 -10 -9 -9 -9 -8 -8 -7 -8 -8 -8 -8 -8 -8 -8 -8 -8 -8 -9 -9 -9
-13 -12 -11 -10 -10 -10 -11 -11 -10 -11 -10 -10 -10 -10 -10 -10 -8 -8 -8 -8 -8 -8 -8 -8 -8 -8 -8 -8 -9 -9 -9 -9
-13 -12 -12 -12 -11 -10 -11 -11 -11 -11 -11 -11 -11 -11 -10 -9 -9 -8 -8 -8 -8 -8 -8 -8 -8 -8 -8 -8 -9 -9 -9 -9
-12 -11 -11 -12 -11 -12 -11 -11 -11 -11 -11 -11 -10 -10 -10 -10 -9 -9 -8 -8 -8 -8 -8 -8 -8 -8 -8 -8 -9 -9 -9 -9
-13 -11 -11 -11 -11 -11 -11 -10 -11 -11 -11 -10 -10 -10 -10 -10 -9 -9 -8 -8 -8 -8 -8 -8 -8 -9 -8 -9 -9 -9 -9 -9
-11 -10 -11 -12 -12 -11 -11 -10 -10 -11 -10 -10 -10 -10 -9 -9 -9 -9 -8 -9 -9 -9 -9 -9 -8 -9 -9 -9 -9 -9 -9 -10
-11 -11 -12 -11 -11 -11 -11 -10 -10 -11 -11 -11 -11 -10 -9 -9 -9 -9 -9 -8 -9 -9 -9 -9 -9 -10 -10 -9 -9 -9 -9 -9

GFSFLT2_500_temp_015.txt.gz
Temp
-4 -4 -4 -5 -4 -5 -6 -6 -6 -5 -5 -6 -6 -6 -6 -6 -6 -5 -7 -5 -5 -7 -6 -6 -7 -7 -7 -7 -6 -5 -5 -5
-4 -5 -5 -4 -5 -6 -6 -5 -6 -5 -5 -5 -5 -5 -5 -6 -6 -5 -6 -5 -4 -7 -6 -5 -6 -7 -7 -7 -7 -6 -6 -6
-5 -4 -5 -4 -4 -6 -7 -7 -6 -6 -4 -4 -5 -6 -6 -6 -6 -5 -5 -5 -5 -6 -6 -6 -6 -7 -7 -7 -7 -7 -6 -6
-4 -4 -5 -5 -6 -6 -6 -5 -7 -7 -4 -5 -6 -6 -6 -6 -5 -5 -6 -6 -6 -7 -6 -6 -6 -7 -7 -7 -7 -7 -7 -6
-6 -6 -6 -6 -6 -6 -6 -6 -5 -7 -3 -5 -5 -6 -6 -6 -7 -7 -7 -7 -7 -7 -7 -6 -6 -6 -6 -7 -7 -7 -7 -6
-5 -5 -7 -6 -7 -7 -7 -6 -4 -4 -4 -4 -5 -6 -6 -7 -7 -6 -8 -8 -7 -7 -7 -6 -6 -6 -6 -7 -7 -7 -7 -7
-7 -7 -8 -7 -7 -8 -7 -5 -6 -4 -6 -6 -5 -6 -6 -7 -7 -7 -7 -8 -7 -7 -7 -7 -6 -6 -6 -6 -7 -7 -7 -7
-9 -10 -9 -8 -8 -8 -9 -8 -7 -6 -4 -5 -6 -6 -7 -7 -7 -7 -7 -7 -7 -8 -7 -7 -7 -6 -6 -6 -7 -7 -7 -8
-9 -10 -10 -9 -6 -8 -9 -8 -8 -6 -4 -6 -6 -6 -7 -7 -8 -8 -6 -7 -8 -7 -7 -7 -7 -7 -6 -6 -7 -7 -7 -8
-10 -10 -10 -5 -7 -8 -9 -9 -8 -8 -7 -6 -6 -6 -6 -7 -7 -8 -8 -7 -7 -8 -8 -8 -7 -8 -7 -6 -6 -7 -8 -7
-11 -11 -9 -8 -7 -8 -9 -8 -9 -9 -9 -7 -7 -7 -7 -6 -7 -7 -5 -6 -6 -8 -9 -9 -9 -8 -7 -7 -6 -6 -7 -8
-12 -12 -9 -7 -9 -9 -9 -9 -9 -8 -8 -8 -6 -6 -5 -7 -6 -7 -8 -7 -6 -8 -8 -9 -8 -8 -8 -7 -7 -7 -7 -8
-13 -11 -10 -9 -10 -10 -10 -9 -9 -8 -8 -7 -7 -6 -6 -6 -7 -7 -7 -8 -8 -8 -8 -7 -9 -8 -6 -7 -7 -7 -8 -8
-13 -13 -12 -11 -10 -10 -9 -9 -9 -8 -8 -8 -8 -7 -7 -7 -7 -7 -7 -7 -8 -8 -9 -9 -8 -7 -8 -7 -7 -8 -8 -8
-12 -13 -13 -12 -11 -10 -10 -10 -8 -8 -7 -8 -8 -8 -7 -7 -7 -8 -8 -7 -7 -7 -8 -9 -9 -8 -8 -7 -7 -8 -8 -8
-11 -13 -11 -11 -10 -10 -10 -9 -10 -9 -8 -9 -8 -8 -8 -8 -7 -7 -8 -8 -8 -8 -8 -8 -9 -9 -8 -8 -8 -8 -8 -8
-12 -12 -11 -10 -9 -10 -10 -10 -11 -10 -10 -9 -9 -8 -8 -8 -8 -9 -9 -9 -9 -9 -9 -9 -9 -9 -9 -9 -8 -8 -8 -8
-12 -11 -10 -10 -11 -9 -11 -11 -10 -10 -9 -10 -8 -8 -9 -9 -9 -9 -10 -9 -9 -9 -10 -9 -10 -10 -9 -9 -9 -9 -8 -9
-12 -11 -10 -9 -10 -11 -10 -10 -10 -9 -9 -8 -9 -9 -9 -10 -9 -9 -9 -1 -10 -10 -10 -10 -10 -10 -10 -9 -9 -8 -9 -9

GFSFLT2_500_temp_021.txt.gz
Temp
-4 -4 -4 -4 -3 -4 -5 -5 -5 -4 -4 -4 -5 -6 -6 -6 -7 -6 -6 -6 -6 -6 -6 -7 -6 -5 -5 -6 -7 -7 -7 -7
-5 -5 -4 -4 -4 -4 -4 -4 -4 -3 -3 -2 -4 -5 -6 -6 -4 -5 -6 -6 -6 -6 -6 -6 -6 -6 -5 -6 -7 -7 -7 -6
-5 -5 -4 -4 -3 -3 -4 -4 -3 -3 -2 -3 -4 -5 -6 -6 -5 -5 -6 -6 -6 -6 -6 -6 -7 -6 -6 -6 -6 -7 -7 -6
-4 -5 -5 -5 -5 -5 -4 -2 -2 -3 -2 -2 -4 -4 -5 -6 -6 -6 -6 -6 -6 -7 -7 -7 -7 -7 -6 -7 -7 -7 -7 -6
-3 -5 -5 -4 -4 -5 -3 -4 -3 -3 -2 -4 -4 -5 -5 -6 -6 -6 -6 -6 -6 -7 -6 -7 -7 -7 -7 -7 -7 -8 -7 -7
-3 -5 -5 -4 -4 -4 -4 -3 -2 -2 -3 -3 -4 -5 -5 -5 -6 -6 -6 -6 -5 -6 -7 -7 -7 -7 -7 -7 -7 -7 -7 -7
-4 -4 -5 -4 -4 -4 -3 -3 -3 -2 -3 -3 -4 -4 -4 -5 -6 -6 -6 -6 -5 -5 -6 -7 -6 -8 -8 -7 -8 -8 -8 -7
-5 -5 -5 -5 -3 -2 -2 -3 -4 -3 -3 -4 -4 -5 -5 -5 -6 -6 -6 -6 -5 -5 -5 -6 -7 -7 -8 -8 -8 -8 -7 -7
-6 -6 -6 -6 -3 -3 -3 -3 -3 -3 -3 -4 -5 -4 -5 -5 -5 -5 -6 -5 -5 -5 -5 -6 -7 -6 -7 -6 -7 -7 -7 -7
-7 -9 -8 -3 -5 -5 -4 -3 -3 -3 -4 -4 -5 -5 -4 -5 -5 -6 -6 -6 -6 -6 -6 -7 -7 -6 -6 -7 -7 -7 -8 -8
-10 -10 -7 -5 -5 -7 -7 -5 -4 -4 -6 -5 -5 -6 -5 -5 -5 -5 -6 -6 -6 -5 -6 -6 -6 -6 -6 -7 -6 -6 -7 -7
-12 -11 -9 -7 -8 -7 -8 -7 -6 -5 -6 -6 -5 -5 -6 -5 -5 -5 -5 -6 -6 -6 -6 -6 -7 -7 -7 -6 -7 -6 -6 -7
-13 -13 -10 -9 -10 -10 -9 -5 -7 -6 -7 -7 -6 -5 -6 -7 -6 -5 -5 -6 -7 -7 -6 -7 -7 -8 -8 -8 -7 -7 -7 -7
-13 -14 -12 -12 -11 -11 -10 -8 -7 -7 -7 -8 -8 -8 -7 -6 -6 -6 -6 -6 -6 -7 -7 -8 -8 -8 -8 -8 -8 -8 -8 -8
-13 -13 -13 -12 -11 -11 -11 -10 -8 -8 -8 -8 -8 -8 -8 -8 -8 -7 -7 -7 -7 -7 -7 -8 -8 -8 -8 -8 -8 -8 -9 -9
-16 -13 -13 -13 -12 -11 -11 -11 -10 -9 -8 -8 -8 -8 -9 -9 -9 -8 -7 -7 -8 -8 -8 -8 -8 -8 -8 -8 -8 -8 -9 -9
-15 -14 -13 -13 -12 -11 -11 -11 -11 -10 -9 -9 -9 -9 -9 -9 -9 -9 -8 -8 -8 -8 -8 -8 -8 -8 -8 -8 -8 -8 -8 -9
-14 -13 -12 -12 -11 -10 -10 -10 -9 -9 -9 -9 -9 -9 -9 -9 -9 -8 -8 -8 -8 -8 -8 -8 -8 -8 -8 -9 -9 -9 -9 -9
-14 -13 -13 -11 -11 -10 -12 -10 -9 -10 -10 -9 -9 -9 -9 -9 -9 -8 -8 -8 -9 -8 -8 -8 -9 -8 -7 -8 -8 -8 -9 -9

GFSFLT2_500_temp_024.txt.gz
Temp
-4 -4 -4 -4 -4 -4 -4 -4 -4 -4 -3 -4 -4 -5 -6 -6 -6 -7 -6 -6 -6 -6 -6 -7 -7 -7 -6 -5 -6 -6 -7 -7
-5 -5 -4 -4 -4 -5 -5 -4 -3 -3 -2 -3 -4 -4 -5 -6 -6 -6 -7 -7 -7 -6 -6 -6 -7 -7 -6 -6 -6 -6 -7 -7
-4 -4 -4 -4 -3 -3 -4 -4 -4 -3 -2 -3 -3 -4 -5 -6 -6 -6 -6 -6 -7 -7 -6 -7 -7 -6 -6 -6 -6 -6 -7 -7
-4 -4 -4 -4 -4 -5 -5 -3 -3 -2 -1 -2 -3 -4 -5 -6 -6 -5 -6 -6 -6 -7 -7 -7 -6 -7 -7 -6 -6 -7 -7 -7
-5 -5 -4 -4 -3 -3 -4 -4 -3 -3 -1 -4 -3 -4 -4 -5 -6 -6 -6 -6 -6 -6 -7 -7 -7 -7 -7 -7 -7 -7 -7 -7
-5 -5 -5 -4 -4 -3 -3 -3 -2 -2 -2 -2 -4 -4 -5 -5 -5 -6 -6 -6 -6 -6 -6 -6 -6 -6 -7 -7 -8 -8 -8 -7
-6 -6 -5 -5 -4 -4 -3 -3 -2 -2 -2 -3 -3 -4 -5 -4 -5 -5 -6 -6 -6 -6 -6 -6 -5 -6 -6 -7 -7 -8 -8 -7
-6 -6 -6 -5 -5 -4 -4 -3 -2 -2 -2 -3 -4 -4 -4 -4 -4 -4 -4 -5 -7 -7 -6 -6 -6 -6 -6 -6 -7 -7 -8 -7
-7 -6 -6 -5 -5 -5 -5 -4 -3 -3 -2 -2 -3 -4 -4 -4 -4 -4 -4 -4 -6 -6 -7 -6 -6 -6 -6 -7 -7 -8 -8 -8
-8 -8 -6 -5 -6 -6 -5 -5 -4 -3 -3 -2 -3 -4 -4 -4 -5 -4 -4 -4 -5 -5 -5 -6 -6 -6 -6 -6 -6 -6 -8 -8
-10 -8 -5 -6 -6 -6 -5 -5 -5 -5 -4 -3 -3 -4 -4 -4 -5 -5 -5 -4 -5 -5 -6 -6 -6 -7 -7 -6 -6 -6 -7 -6
-11 -8 -6 -6 -8 -7 -6 -4 -6 -6 -5 -5 -4 -3 -3 -6 -5 -5 -5 -5 -5 -6 -6 -7 -7 -7 -7 -7 -7 -7 -7 -7
-13 -11 -6 -6 -8 -7 -7 -4 -6 -6 -6 -6 -5 -5 -6 -5 -6 -5 -5 -5 -5 -6 -6 -6 -6 -6 -6 -7 -7 -7 -7 -7
-13 -13 -9 -7 -7 -9 -6 -6 -6 -6 -7 -7 -6 -6 -6 -7 -6 -6 -6 -6 -6 -6 -7 -7 -7 -6 -7 -8 -8 -8 -8 -8
-14 -12 -11 -10 -11 -10 -8 -8 -7 -7 -7 -7 -7 -7 -7 -8 -9 -8 -7 -6 -6 -7 -7 -7 -8 -8 -8 -8 -8 -8 -9 -8
-15 -13 -12 -12 -12 -11 -10 -10 -9 -8 -7 -8 -8 -8 -8 -8 -9 -9 -8 -7 -7 -7 -7 -7 -7 -8 -8 -8 -8 -9 -9 -9
-16 -13 -13 -13 -12 -13 -12 -11 -11 -11 -10 -9 -9 -9 -9 -9 -9 -9 -9 -9 -7 -7 -7 -7 -7 -7 -7 -8 -8 -8 -9 -9
-17 -15 -13 -14 -13 -13 -13 -12 -11 -11 -11 -11 -10 -10 -10 -9 -8 -8 -8 -9 -9 -7 -7 -7 -7 -7 -7 -8 -8 -8 -8 -8
-18 -16 -14 -14 -13 -13 -13 -11 -12 -11 -11 -11 -11 -11 -10 -9 -9 -8 -8 -7 -7 -7 -7 -7 -7 -8 -8 -8 -7 -8 -8 -8

GFSFLT2_500_temp_027.txt.gz
Temp
-4 -4 -5 -4 -3 -5 -5 -4 -4 -3 -3 -3 -4 -5 -6 -6 -6 -6 -6 -6 -7 -6 -6 -5 -6 -6 -6 -5 -5 -5 -5 -5
-5 -5 -5 -4 -5 -5 -5 -4 -4 -3 -2 -2 -4 -4 -5 -7 -6 -7 -6 -6 -6 -6 -6 -6 -6 -6 -6 -6 -5 -6 -6 -6
-5 -4 -4 -4 -3 -3 -3 -4 -3 -2 -2 -2 -3 -4 -5 -6 -6 -7 -7 -6 -7 -7 -7 -7 -7 -7 -7 -6 -6 -6 -6 -7
-5 -5 -5 -5 -5 -5 -5 -4 -3 -3 -2 -2 -3 -4 -5 -6 -6 -6 -6 -7 -7 -7 -7 -7 -7 -7 -7 -6 -6 -7 -7 -7
-5 -5 -5 -4 -5 -4 -4 -4 -3 -2 -1 -3 -3 -4 -4 -5 -6 -6 -7 -6 -7 -7 -7 -7 -7 -6 -6 -7 -6 -7 -7 -7
-6 -6 -6 -5 -5 -4 -4 -3 -2 -2 -2 -2 -3 -3 -4 -5 -5 -6 -7 -6 -6 -6 -6 -7 -7 -6 -6 -6 -6 -7 -6 -7
-7 -7 -6 -5 -5 -5 -4 -4 -3 -2 -2 -2 -3 -3 -4 -5 -5 -6 -6 -6 -6 -6 -6 -6 -6 -7 -6 -6 -5 -6 -6 -6
-7 -7 -6 -6 -5 -5 -5 -4 -3 -3 -2 -2 -3 -4 -3 -4 -4 -5 -6 -5 -6 -6 -6 -6 -6 -7 -6 -6 -6 -6 -6 -6
-8 -7 -7 -6 -5 -5 -5 -5 -4 -3 -3 -3 -3 -3 -4 -4 -3 -4 -5 -5 -6 -6 -6 -6 -6 -6 -7 -6 -6 -7 -6 -6
-9 -8 -7 -5 -5 -6 -6 -5 -5 -4 -4 -3 -4 -4 -4 -4 -4 -4 -4 -4 -4 -5 -5 -6 -6 -7 -7 -7 -7 -7 -7 -7
-10 -8 -7 -6 -6 -6 -6 -5 -5 -4 -4 -4 -4 -4 -4 -4 -4 -4 -4 -4 -4 -4 -4 -5 -5 -6 -7 -7 -7 -7 -6 -7
-10 -8 -7 -6 -7 -7 -6 -5 -5 -5 -5 -4 -4 -3 -4 -5 -5 -4 -4 -4 -4 -4 -4 -4 -4 -5 -5 -6 -7 -7 -7 -7
-11 -9 -7 -7 -7 -7 -6 -5 -6 -6 -6 -5 -4 -4 -5 -5 -5 -5 -5 -4 -5 -5 -5 -5 -4 -4 -5 -5 -6 -7 -7 -7
-11 -9 -7 -7 -8 -7 -7 -6 -6 -6 -6 -6 -5 -5 -5 -5 -5 -5 -5 -5 -5 -5 -5 -5 -5 -5 -5 -5 -6 -7 -7 -7
-13 -9 -8 -8 -8 -8 -7 -7 -7 -7 -6 -7 -7 -6 -6 -6 -6 -6 -6 -5 -6 -5 -5 -5 -5 -5 -5 -5 -6 -7 -8 -8
-13 -11 -8 -7 -7 -7 -7 -7 -8 -7 -8 -8 -8 -8 -7 -7 -6 -6 -6 -6 -6 -6 -6 -6 -6 -6 -6 -6 -5 -6 -7 -7
-13 -11 -11 -10 -9 -8 -8 -8 -8 -8 -8 -9 -8 -8 -8 -8 -8 -7 -6 -7 -7 -7 -7 -7 -6 -6 -7 -7 -7 -7 -8 -8
-13 -13 -12 -11 -11 -10 -9 -10 -10 -9 -9 -9 -10 -10 -9 -8 -8 -8 -8 -7 -7 -7 -7 -7 -7 -7 -7 -7 -7 -7 -7 -7
-17 -17 -13 -12 -11 -10 -10 -11 -11 -10 -9 -10 -10 -10 -10 -10 -9 -8 -8 -8 -8 -8 -7 -7 -7 -7 -7 -7 -7 -7 -7 -7

GFSFLT2_500_temp_030.txt.gz
Temp
-4 -5 -5 -4 -4 -4 -5 -4 -3 -3 -3 -4 -4 -5 -5 -6 -7 -6 -6 -5 -5 -5 -5 -5 -5 -5 -5 -5 -5 -4 -4 -4
-5 -5 -5 -4 -6 -5 -5 -4 -4 -3 -3 -3 -4 -5 -5 -6 -5 -6 -6 -6 -6 -6 -6 -5 -5 -5 -5 -5 -5 -5 -5 -5
-5 -4 -4 -4 -4 -4 -5 -4 -4 -3 -3 -3 -4 -5 -5 -6 -6 -6 -6 -6 -6 -6 -6 -6 -6 -6 -6 -5 -4 -4 -5 -5
-4 -5 -5 -5 -5 -5 -4 -3 -3 -3 -5 -2 -3 -4 -5 -5 -6 -6 -6 -7 -7 -7 -6 -6 -6 -6 -6 -6 -5 -6 -6 -6
-6 -6 -5 -5 -5 -4 -4 -4 -3 -3 -3 -2 -3 -4 -4 -5 -5 -5 -5 -5 -6 -6 -6 -7 -7 -6 -6 -6 -6 -6 -5 -5
-7 -7 -7 -5 -4 -5 -4 -4 -3 -2 -3 -2 -3 -4 -4 -5 -5 -6 -6 -6 -6 -6 -6 -6 -6 -6 -6 -6 -7 -6 -5 -5
-7 -6 -6 -5 -5 -5 -4 -4 -3 -3 -3 -3 -3 -4 -4 -4 -5 -5 -6 -6 -6 -6 -7 -7 -7 -7 -7 -6 -6 -6 -5 -5
-7 -7 -6 -5 -5 -5 -5 -4 -4 -3 -3 -3 -3 -3 -3 -5 -4 -4 -5 -6 -6 -6 -7 -7 -6 -7 -7 -7 -6 -6 -6 -6
-8 -8 -7 -6 -5 -5 -5 -5 -4 -4 -4 -5 -4 -4 -5 -5 -5 -5 -5 -6 -5 -6 -6 -6 -6 -6 -6 -6 -6 -6 -6 -6
-9 -8 -8 -6 -7 -6 -6 -6 -6 -5 -4 -4 -4 -4 -4 -5 -5 -5 -5 -5 -5 -5 -5 -6 -6 -6 -6 -6 -6 -6 -6 -6
-10 -9 -8 -8 -7 -6 -6 -6 -5 -4 -5 -4 -4 -4 -4 -5 -5 -5 -5 -5 -5 -5 -5 -5 -5 -5 -6 -6 -6 -6 -6 -7
-10 -10 -8 -9 -8 -7 -7 -7 -6 -5 -5 -5 -5 -4 -4 -5 -5 -5 -5 -4 -4 -5 -5 -4 -5 -6 -6 -6 -6 -6 -7 -7
-11 -9 -8 -9 -8 -7 -7 -8 -7 -6 -5 -5 -5 -4 -4 -5 -5 -5 -5 -5 -4 -4 -4 -4 -5 -5 -5 -5 -5 -6 -7 -7
-11 -10 -9 -9 -8 -8 -8 -7 -6 -5 -5 -5 -5 -5 -5 -5 -5 -5 -5 -5 -5 -4 -4 -4 -4 -4 -4 -5 -5 -5 -6 -6
-13 -10 -9 -9 -9 -8 -7 -7 -7 -6 -6 -5 -6 -5 -5 -5 -5 -5 -6 -5 -5 -5 -5 -5 -5 -5 -4 -4 -5 -5 -6 -6
-13 -11 -9 -8 -7 -8 -8 -8 -8 -7 -7 -6 -6 -6 -6 -6 -5 -5 -5 -5 -6 -5 -5 -5 -5 -5 -5 -5 -5 -5 -6 -6
-13 -11 -10 -9 -9 -7 -8 -8 -9 -8 -8 -7 -7 -7 -7 -6 -6 -6 -6 -6 -6 -6 -6 -6 -6 -6 -5 -5 -5 -5 -5 -6
-12 -13 -12 -11 -9 -10 -8 -8 -8 -7 -8 -8 -8 -8 -8 -7 -7 -7 -6 -7 -7 -6 -6 -7 -7 -6 -6 -6 -6 -6 -6 -6
-15 -14 -12 -10 -10 -9 -7 -7 -7 -7 -8 -8 -7 -9 -9 -8 -8 -7 -7 -7 -7 -7 -7 -8 -8 -7 -7 -7 -7 -7 -7 -7

GFSFLT2_500_temp_033.txt.gz
Temp
-5 -5 -5 -5 -4 -4 -7 -7 -6 -6 -6 -5 -7 -7 -6 -7 -7 -7 -7 -6 -5 -5 -5 -5 -5 -5 -5 -5 -5 -4 -4 -4
-5 -5 -5 -5 -5 -6 -6 -7 -6 -6 -6 -6 -5 -5 -6 -5 -6 -6 -7 -5 -5 -5 -5 -5 -5 -5 -5 -5 -4 -4 -4 -4
-8 -4 -4 -5 -5 -5 -6 -5 -6 -6 -6 -6 -6 -4 -5 -5 -5 -6 -6 -6 -5 -5 -5 -5 -5 -5 -5 -4 -4 -4 -4 -5
-5 -5 -5 -5 -5 -4 -4 -4 -5 -6 -5 -6 -6 -5 -5 -5 -5 -6 -6 -6 -6 -6 -6 -6 -5 -5 -5 -5 -5 -5 -5 -5
-9 -10 -6 -5 -5 -5 -5 -6 -5 -6 -7 -4 -5 -4 -5 -5 -5 -6 -6 -5 -6 -6 -5 -5 -5 -5 -5 -5 -5 -5 -5 -5
-8 -6 -7 -6 -5 -5 -5 -5 -6 -5 -7 -5 -3 -5 -5 -5 -5 -6 -6 -5 -6 -6 -5 -5 -5 -5 -5 -5 -5 -5 -5 -5
-9 -10 -10 -9 -6 -5 -5 -5 -5 -7 -7 -8 -5 -5 -5 -5 -5 -5 -5 -5 -5 -6 -6 -5 -5 -5 -5 -5 -5 -5 -5 -5
-10 -10 -10 -9 -7 -6 -6 -5 -5 -6 -8 -8 -7 -5 -5 -5 -5 -4 -4 -5 -5 -5 -5 -6 -6 -6 -6 -6 -6 -6 -5 -5
-8 -9 -8 -7 -6 -6 -9 -8 -6 -5 -7 -9 -8 -4 -5 -5 -5 -5 -5 -5 -5 -5 -5 -6 -6 -6 -6 -6 -6 -6 -5 -6
-9 -10 -8 -7 -8 -7 -7 -7 -7 -7 -6 -5 -4 -4 -5 -5 -5 -5 -5 -6 -6 -6 -6 -6 -6 -6 -6 -6 -6 -6 -6 -6
-10 -9 -10 -9 -9 -9 -8 -7 -7 -6 -6 -5 -5 -5 -5 -6 -6 -5 -5 -5 -5 -6 -6 -6 -5 -5 -5 -5 -6 -6 -6 -6
-10 -11 -11 -12 -12 -9 -8 -7 -7 -7 -6 -5 -5 -5 -5 -6 -5 -5 -5 -5 -5 -5 -5 -5 -5 -6 -6 -6 -6 -6 -6 -6
-12 -11 -11 -14 -13 -10 -10 -11 -9 -8 -6 -6 -5 -5 -4 -4 -5 -5 -5 -5 -4 -4 -4 -4 -5 -5 -5 -6 -6 -6 -6 -6
-14 -12 -12 -14 -11 -12 -12 -9 -7 -6 -5 -4 -4 -4 -5 -5 -5 -5 -5 -5 -5 -4 -4 -4 -4 -4 -5 -5 -6 -6 -6 -6
-15 -14 -12 -13 -12 -10 -10 -8 -8 -6 -5 -5 -5 -5 -5 -5 -5 -5 -5 -5 -5 -5 -4 -5 -5 -5 -5 -5 -5 -5 -5 -4
-15 -13 -13 -12 -12 -10 -10 -8 -7 -7 -6 -6 -6 -6 -6 -6 -6 -5 -5 -5 -5 -5 -5 -5 -4 -5 -5 -4 -5 -5 -4 -4
-15 -14 -13 -11 -11 -10 -8 -8 -8 -8 -8 -7 -7 -7 -6 -6 -6 -6 -5 -5 -5 -5 -5 -5 -5 -5 -5 -5 -5 -5 -5 -5
-13 -14 -13 -12 -11 -10 -10 -10 -10 -10 -8 -8 -7 -7 -7 -7 -7 -6 -6 -6 -5 -6 -5 -5 -5 -5 -5 -5 -5 -5 -5 -5
-12 -12 -12 -11 -11 -10 -8 -9 -9 -9 -8 -7 -8 -7 -7 -7 -7 -7 -7 -7 -6 -6 -6 -5 -5 -5 -5 -5 -5 -5 -5 -5

GFSFLT2_500_temp_036.txt.gz
Temp
-6 -6 -6 -6 -4 -5 -6 -7 -7 -7 -6 -6 -6 -6 -7 -7 -7 -7 -7 -7 -5 -6 -5 -5 -4 -4 -4 -5 -5 -4 -4 -4
-6 -7 -6 -6 -6 -6 -7 -7 -7 -6 -6 -5 -5 -5 -6 -7 -7 -7 -7 -7 -6 -6 -5 -5 -4 -4 -4 -4 -4 -4 -4 -4
-9 -7 -5 -6 -8 -7 -7 -6 -7 -6 -5 -5 -5 -6 -6 -7 -6 -7 -7 -7 -6 -5 -6 -5 -5 -4 -4 -4 -4 -4 -4 -4
-9 -9 -8 -6 -6 -6 -5 -5 -6 -6 -5 -5 -5 -6 -6 -5 -6 -7 -8 -7 -7 -5 -6 -5 -5 -5 -4 -4 -4 -4 -4 -4
-10 -10 -9 -7 -6 -6 -7 -7 -5 -6 -6 -6 -6 -6 -6 -5 -6 -7 -7 -7 -7 -6 -6 -5 -4 -5 -5 -4 -4 -4 -4 -4
-9 -7 -8 -9 -9 -8 -7 -5 -6 -6 -6 -6 -6 -6 -6 -5 -5 -5 -6 -7 -7 -6 -5 -5 -5 -5 -5 -5 -5 -5 -5 -5
-10 -9 -9 -8 -7 -8 -6 -6 -6 -7 -7 -7 -6 -6 -6 -5 -5 -6 -7 -7 -8 -6 -5 -6 -5 -5 -5 -5 -5 -5 -5 -5
-10 -9 -10 -10 -9 -7 -9 -8 -8 -7 -7 -7 -7 -5 -5 -5 -4 -5 -5 -6 -6 -5 -5 -5 -5 -4 -5 -5 -5 -5 -5 -5
-10 -8 -8 -10 -10 -9 -9 -9 -9 -7 -7 -8 -8 -8 -6 -5 -5 -4 -4 -5 -5 -5 -5 -6 -5 -5 -5 -5 -6 -5 -5 -5
-10 -10 -10 -9 -10 -10 -10 -9 -9 -8 -8 -9 -9 -9 -8 -5 -5 -5 -5 -5 -5 -5 -5 -5 -5 -5 -6 -6 -6 -6 -6 -5
-11 -10 -10 -9 -10 -10 -9 -10 -9 -9 -9 -9 -9 -9 -8 -6 -5 -5 -5 -5 -5 -5 -6 -6 -6 -6 -6 -6 -6 -5 -5 -6
-12 -11 -10 -11 -11 -11 -10 -10 -10 -10 -10 -9 -8 -8 -9 -5 -5 -5 -5 -4 -4 -4 -4 -6 -6 -6 -5 -5 -5 -5 -6 -6
-14 -11 -12 -11 -11 -11 -11 -11 -10 -10 -10 -10 -9 -9 -4 -5 -6 -5 -5 -5 -5 -5 -4 -4 -4 -4 -4 -5 -5 -6 -6 -7
-15 -14 -13 -12 -12 -12 -12 -11 -10 -10 -8 -7 -6 -5 -4 -4 -5 -5 -6 -6 -5 -5 -5 -5 -4 -4 -5 -5 -5 -5 -6 -6
-16 -14 -13 -13 -12 -12 -12 -12 -11 -10 -8 -7 -5 -4 -4 -4 -5 -6 -6 -5 -5 -4 -4 -4 -4 -4 -4 -5 -5 -5 -5 -5
-17 -15 -14 -13 -13 -13 -12 -11 -10 -9 -7 -6 -6 -5 -5 -7 -6 -6 -6 -6 -5 -5 -4 -4 -4 -4 -4 -4 -4 -4 -4 -4
-16 -15 -14 -13 -13 -12 -11 -10 -9 -7 -5 -5 -6 -6 -6 -6 -6 -6 -6 -6 -6 -5 -5 -4 -5 -5 -4 -4 -4 -4 -4 -4
-15 -15 -14 -12 -12 -13 -11 -10 -9 -8 -8 -8 -7 -7 -7 -7 -6 -6 -6 -6 -6 -6 -5 -5 -5 -5 -5 -5 -5 -5 -4 -5
-13 -14 -13 -12 -11 -11 -11 -10 -10 -10 -10 -9 -8 -7 -7 -7 -7 -6 -7 -6 -6 -6 -6 -5 -5 -5 -5 -5 -5 -5 -5 -5

GFSFLT2_500_temp_042.txt.gz
Temp
-8 -7 -8 -8 -6 -6 -6 -6 -6 -6 -5 -5 -6 -6 -7 -6 -8 -7 -7 -6 -7 -8 -7 -6 -6 -5 -5 -5 -5 -5 -5 -4
-8 -9 -8 -7 -7 -7 -6 -6 -6 -5 -5 -5 -5 -5 -6 -6 -6 -5 -5 -6 -7 -7 -7 -7 -6 -5 -5 -5 -5 -5 -5 -5
-11 -10 -7 -7 -7 -8 -9 -7 -7 -5 -4 -5 -6 -6 -7 -7 -7 -6 -5 -5 -6 -7 -7 -8 -6 -5 -5 -5 -5 -5 -4 -4
-10 -7 -8 -10 -8 -10 -9 -7 -7 -6 -6 -7 -6 -6 -6 -6 -7 -7 -6 -6 -6 -8 -7 -8 -6 -5 -5 -5 -5 -5 -5 -5
-8 -10 -11 -10 -10 -8 -7 -8 -7 -6 -6 -6 -6 -6 -6 -6 -6 -7 -6 -6 -5 -7 -8 -7 -7 -6 -5 -5 -5 -5 -5 -5
-9 -10 -11 -9 -10 -10 -9 -8 -6 -5 -6 -6 -6 -6 -6 -6 -6 -7 -7 -6 -6 -7 -7 -7 -8 -7 -6 -5 -5 -5 -5 -5
-9 -9 -10 -8 -10 -10 -9 -8 -7 -6 -6 -7 -6 -6 -6 -6 -6 -7 -7 -7 -7 -7 -6 -7 -7 -8 -6 -5 -5 -5 -5 -5
-9 -10 -10 -10 -10 -10 -10 -9 -8 -7 -6 -8 -7 -7 -6 -6 -6 -6 -7 -7 -7 -7 -6 -7 -7 -7 -7 -6 -6 -5 -5 -5
-11 -11 -11 -11 -11 -11 -10 -10 -9 -8 -7 -8 -8 -8 -7 -7 -7 -7 -7 -6 -6 -6 -6 -7 -7 -7 -8 -6 -6 -6 -6 -6
-13 -12 -12 -11 -11 -11 -10 -10 -10 -8 -9 -9 -8 -8 -8 -8 -7 -7 -6 -6 -6 -6 -5 -7 -7 -7 -7 -7 -7 -6 -7 -7
-13 -12 -11 -11 -10 -10 -10 -10 -9 -9 -9 -9 -9 -8 -8 -7 -7 -7 -7 -6 -6 -5 -5 -5 -6 -6 -7 -7 -8 -7 -7 -7
-13 -12 -12 -11 -10 -10 -10 -9 -10 -10 -9 -9 -9 -9 -8 -8 -8 -7 -6 -6 -5 -5 -5 -5 -6 -6 -6 -7 -6 -7 -7 -7
-13 -12 -12 -11 -10 -10 -11 -10 -10 -10 -9 -9 -8 -8 -9 -9 -7 -6 -6 -6 -6 -5 -5 -6 -6 -6 -6 -6 -7 -7 -7 -7
-13 -12 -12 -10 -9 -10 -11 -10 -10 -10 -9 -8 -8 -8 -9 -9 -7 -7 -7 -7 -7 -7 -7 -6 -5 -5 -6 -6 -7 -7 -7 -7
-13 -12 -12 -10 -9 -10 -10 -10 -10 -10 -9 -9 -8 -8 -8 -8 -8 -6 -7 -7 -7 -8 -8 -7 -6 -5 -5 -5 -5 -6 -6 -6
-12 -12 -11 -12 -10 -10 -11 -10 -10 -10 -8 -7 -7 -8 -8 -8 -8 -7 -7 -7 -7 -8 -7 -6 -6 -6 -6 -5 -5 -5 -6 -6
-13 -12 -12 -12 -11 -10 -10 -11 -10 -9 -8 -7 -7 -8 -8 -8 -9 -8 -7 -7 -7 -8 -7 -7 -7 -6 -6 -6 -5 -5 -5 -5
-14 -13 -12 -12 -12 -11 -10 -10 -11 -9 -7 -6 -7 -8 -8 -8 -8 -8 -8 -6 -6 -7 -6 -6 -6 -6 -6 -6 -5 -5 -5 -5
-14 -13 -12 -13 -13 -12 -11 -10 -10 -9 -8 -7 -6 -7 -7 -7 -7 -8 -8 -8 -7 -6 -6 -6 -6 -6 -6 -6 -6 -6 -5 -5

GFSFLT2_500_temp_045.txt.gz
Temp
-8 -8 -9 -8 -7 -7 -7 -6 -6 -5 -6 -4 -5 -6 -7 -5 -6 -7 -8 -8 -8 -8 -8 -7 -6 -5 -5 -5 -5 -4 -5 -5
-8 -10 -10 -9 -8 -8 -7 -7 -6 -5 -6 -3 -6 -6 -6 -5 -5 -6 -7 -8 -8 -8 -8 -8 -6 -5 -5 -5 -5 -5 -4 -4
-10 -10 -9 -9 -8 -8 -9 -7 -5 -4 -4 -4 -5 -7 -6 -6 -6 -6 -6 -7 -8 -8 -8 -8 -7 -5 -5 -5 -5 -4 -4 -4
-10 -9 -9 -10 -9 -9 -8 -6 -6 -5 -3 -4 -5 -6 -7 -7 -7 -7 -7 -7 -6 -8 -8 -8 -8 -6 -5 -5 -5 -5 -5 -5
-12 -11 -10 -11 -10 -9 -8 -9 -7 -6 -4 -6 -6 -6 -7 -8 -8 -7 -7 -7 -7 -8 -8 -8 -8 -7 -5 -5 -5 -5 -5 -5
-12 -12 -12 -11 -9 -9 -9 -9 -7 -5 -7 -7 -6 -6 -8 -8 -8 -7 -6 -7 -7 -7 -8 -8 -8 -8 -6 -5 -5 -5 -5 -5
-12 -13 -12 -10 -9 -9 -8 -7 -7 -6 -7 -7 -8 -7 -7 -7 -7 -6 -5 -5 -6 -7 -7 -8 -8 -8 -7 -6 -5 -5 -5 -5
-12 -13 -12 -11 -11 -9 -9 -9 -8 -7 -7 -8 -8 -7 -7 -6 -6 -6 -5 -5 -6 -7 -7 -7 -8 -8 -8 -6 -6 -6 -5 -5
-12 -13 -12 -11 -11 -10 -11 -10 -9 -7 -7 -8 -8 -7 -6 -6 -6 -6 -6 -6 -7 -8 -8 -7 -7 -7 -8 -7 -6 -6 -6 -6
-14 -13 -13 -12 -11 -11 -11 -10 -9 -7 -7 -8 -8 -7 -7 -6 -7 -7 -7 -8 -8 -8 -8 -7 -7 -8 -8 -8 -8 -7 -7 -6
-15 -14 -14 -13 -12 -11 -11 -10 -9 -7 -8 -8 -8 -7 -7 -7 -7 -7 -7 -7 -7 -7 -7 -8 -7 -8 -8 -8 -8 -8 -7 -8
-15 -14 -14 -13 -12 -12 -11 -11 -10 -8 -8 -9 -8 -8 -8 -7 -8 -8 -8 -8 -7 -7 -7 -7 -7 -7 -8 -7 -7 -8 -8 -8
-14 -14 -13 -13 -12 -12 -12 -10 -10 -9 -8 -9 -9 -8 -8 -8 -8 -8 -8 -7 -7 -7 -7 -7 -7 -8 -8 -7 -8 -8 -8 -8
-14 -13 -13 -12 -12 -12 -11 -10 -10 -9 -8 -9 -9 -9 -9 -8 -8 -8 -8 -8 -7 -7 -7 -7 -8 -8 -8 -8 -8 -8 -8 -8
-13 -13 -13 -12 -12 -11 -11 -10 -9 -9 -8 -8 -8 -9 -9 -8 -8 -8 -8 -8 -7 -7 -7 -7 -7 -8 -8 -8 -8 -8 -8 -8
-13 -13 -13 -12 -12 -11 -10 -11 -9 -9 -8 -8 -9 -9 -9 -9 -8 -9 -8 -8 -8 -8 -7 -7 -7 -7 -7 -7 -7 -7 -8 -8
-13 -13 -13 -12 -12 -11 -11 -11 -10 -9 -8 -7 -9 -9 -9 -9 -9 -9 -9 -9 -9 -9 -8 -8 -8 -8 -6 -6 -6 -6 -7 -7
-13 -13 -13 -12 -12 -11 -11 -10 -10 -9 -8 -7 -8 -9 -9 -9 -9 -9 -10 -9 -9 -9 -10 -9 -9 -9 -7 -7 -7 -7 -6 -6
-13 -12 -12 -12 -12 -12 -11 -11 -11 -10 -9 -7 -8 -9 -9 -9 -9 -10 -10 -9 -9 -9 -10 -9 -9 -8 -8 -8 -8 -7 -6 -6